Regional Weather Roundup
Issued by NWS

Home | Current Version | Previous Version | Text Only | Print | Product List | Glossary Off
Versions: 1 2 3 4 5 6 7 8 9 10 11 12 13 14 15 16 17 18 19 20 21 22 23 24 25 26 27 28 29 30 31 32 33 34 35 36 37 38 39 40 41 42 43 44 45 46 47 48 49 50

000
ASUS43 KDMX 270508
RWRIA

WEATHER ROUNDUP FOR IOWA
NATIONAL WEATHER SERVICE DES MOINES IA
1200 AM CDT FRI MAY 27 2016

NOTE: "FAIR" INDICATES FEW OR NO CLOUDS BELOW 12,000 FEET WITH NO
SIGNIFICANT WEATHER AND/OR OBSTRUCTIONS TO VISIBILITY.

* - THESE STATIONS ARE NOT NWS STATIONS...THUS NOT UNDER NWS
QUALITY CONTROL.  THEY ALSO DO NOT REPORT WEATHER SUCH
AS PRECIPITATION OR FOG.

IAZ001>003-012>014-020>022-031>034-043>046-270600-
   NORTHWEST IOWA

CITY           SKY/WX    TMP DP  RH WIND       PRES   REMARKS
CARROLL *      CLOUDY    64  55  72 S24G33    29.75S
CHEROKEE *     CLOUDY    61  57  88 NW6       29.82R
LE MARS *      CLEAR     63  57  82 S3        29.81R
ORANGE CITY *  CLEAR     61  57  88 SE3       29.82R
SHELDON *      CLEAR     63  57  82 CALM      29.82R
SIOUX CITY     CLOUDY    63  54  72 SW8       29.78F
SPENCER        CLOUDY    62  55  77 E3        29.83R
STORM LAKE *   CLEAR     61  54  77 NE10      29.81R
$$

IAZ055>058-069>071-079>083-090>094-270600-
   SOUTHWEST IOWA

CITY           SKY/WX    TMP DP  RH WIND       PRES   REMARKS
ATLANTIC *     CLOUDY    64  57  77 SE28G41   29.70F
AUDUBON *      PTCLDY    64  57  77 SE13G31   29.78F
CLARINDA *       N/A     63  61  94 MISG      29.83F
COUNCIL BLFS * PTCLDY    64  57  77 SE25G33   29.77F
CRESTON *      CLOUDY    63  61  94 S20G26    29.87F
HARLAN  *      PTCLDY    64  55  72 S15G23    29.81R
LAMONI         LGT RAIN  61  61 100 W5        29.90F
RED OAK *      CLOUDY    63  59  88 SE28      29.78F
SHENANDOAH *   MOCLDY    63  63 100 SE23G32   29.82R
$$

IAZ047>049-059>061-072>074-084-270600-
   CENTRAL IOWA

CITY           SKY/WX    TMP DP  RH WIND       PRES   REMARKS
AMES           CLOUDY    65  58  78 S21G29    29.77F
ANKENY *       CLOUDY    64  61  88 S15G21    29.83F
BOONE *        PTCLDY    66  57  72 S17G30    29.77F
CHARITON *     CLOUDY    63  63 100 SW7       29.88F
DES MOINES     LGT RAIN  65  58  78 S12       29.85F
GRINNELL*      DRIZZLE   63  59  88 SW9       29.85F
KNOXVILLE *    CLOUDY    63  61  94 W8        29.84F
MARSHALLTOWN     N/A     65  57  75 SW9       29.82R
NEWTON *       CLOUDY    63  63 100 SW10      29.85F
PELLA *        LGT RAIN  63  61  94 W5        29.86F
PERRY *          N/A     66  59  77 S31       29.78R
$$

IAZ004>006-015-016-023>025-035-036-270600-
   NORTH CENTRAL IOWA

CITY           SKY/WX    TMP DP  RH WIND       PRES   REMARKS
ALGONA *       CLEAR     64  57  77 CALM      29.83R
CLARION *      CLEAR     64  57  77 S12G20    29.81F
ESTHERVILLE    CLOUDY    62  56  80 SE6       29.83R
FORT DODGE *   CLOUDY    64  52  63 S6        29.81F
MASON CITY     CLOUDY    64  56  75 S13       29.85F
FOREST CITY *  CLEAR     61  55  82 CALM      29.84S
WEBSTER CITY * CLEAR     64  57  77 SE7       29.79F
IOWA FALLS *     N/A     63  59  88 SE7       29.84S
$$

IAZ007>011-017>019-026>030-037>042-050>054-066-270600-
   NORTHEAST IOWA

CITY           SKY/WX    TMP DP  RH WIND       PRES   REMARKS
CEDAR RAPIDS   CLOUDY    67  58  72 CALM      29.86F
CHARLES CITY * CLEAR     64  59  82 CALM      29.86S
CLINTON *      CLOUDY    71  66  84 SW7       29.86F
DECORAH *      MOCLDY    68  61  77 SW3       29.88S
DUBUQUE        CLOUDY    69  59  70 SW5       29.89R
MONTICELLO *   PTCLDY    70  61  73 NE3       29.88S
OELWEIN *      MOCLDY    64  61  88 NE3       29.88F
WATERLOO       LGT RAIN  67  56  67 S5        29.85F
$$

IAZ064-065-067-068-078-270600-
   EAST CENTRAL IOWA

CITY           SKY/WX    TMP DP  RH WIND       PRES   REMARKS
DAVENPORT      CLOUDY    71  65  81 W7        29.87F
IOWA CITY      CLOUDY    69  56  62 NW8       29.85F
MT. PLEASANT * RAIN      68  66  94 CALM      29.89F
MUSCATINE *    CLOUDY    70  57  64 NW8G15    29.84F
QUAD CITIES    CLOUDY    75  62  64 W5        29.85F
$$

IAZ062-063-075>077-085>089-095>099-270600-
   SOUTHEAST IOWA

CITY           SKY/WX    TMP DP  RH WIND       PRES   REMARKS
BURLINGTON     LGT RAIN  67  64  90 CALM      29.87F
FAIRFIELD *      N/A    N/A N/A N/A MISG        N/A
FORT MADISON * CLOUDY    64  63  94 SW16      29.94R
KEOKUK *       LGT RAIN  66  63  88 W9        29.91R
OSKALOOSA *    CLOUDY    63  61  94 S8        29.87R
OTTUMWA        CLOUDY    63  60  90 S7        29.88F
WASHINGTON *   PTCLDY    64  64 100 S8        29.87R
$$

ABBREVIATIONS USED IN REMARKS
   TC - TEMPERATURES IN CELSIUS
  WCI - WIND CHILL INDEX
   HX - HEAT INDEX
  VSB - VISIBILITY
$$





USA.gov is the U.S. government's official web portal to all federal, state and local government web resources and services.